TimeMST,TemperatureF,Dew PointF,Humidity,Sea Level PressureIn,VisibilityMPH,Wind Direction,Wind SpeedMPH,Gust SpeedMPH,PrecipitationIn,Events,Conditions,WindDirDegrees,DateUTC
12:53 AM,45.0,17.1,33,29.70,10.0,Variable,4.6,-,N/A,,Clear,0,2011-11-25 07:53:00
1:53 AM,39.0,18.0,43,29.73,10.0,ESE,4.6,-,N/A,,Clear,110,2011-11-25 08:53:00
2:53 AM,42.1,16.0,35,29.75,10.0,WNW,5.8,-,N/A,,Clear,290,2011-11-25 09:53:00
3:53 AM,43.0,16.0,34,29.73,10.0,ENE,6.9,-,N/A,,Clear,60,2011-11-25 10:53:00
4:53 AM,42.1,16.0,35,29.73,10.0,Calm,Calm,-,N/A,,Partly Cloudy,0,2011-11-25 11:53:00
5:53 AM,39.9,17.1,40,29.76,10.0,Calm,Calm,-,N/A,,Clear,0,2011-11-25 12:53:00
6:53 AM,37.0,18.0,46,29.79,10.0,SW,6.9,-,N/A,,Clear,220,2011-11-25 13:53:00
7:53 AM,36.0,19.0,50,29.78,10.0,SSE,11.5,-,N/A,,Clear,150,2011-11-25 14:53:00
8:53 AM,46.0,19.0,34,29.76,10.0,NNE,3.5,-,N/A,,Clear,20,2011-11-25 15:53:00
9:35 AM,46.4,15.8,29,29.81,10.0,West,20.7,26.5,N/A,,Clear,260,2011-11-25 16:35:00
9:53 AM,46.9,16.0,29,29.75,10.0,WSW,15.0,20.7,N/A,,Clear,250,2011-11-25 16:53:00
10:53 AM,46.9,21.0,36,29.75,10.0,WSW,17.3,24.2,N/A,,Clear,240,2011-11-25 17:53:00
11:53 AM,43.0,23.0,45,29.74,10.0,SSW,20.7,26.5,N/A,,Overcast,210,2011-11-25 18:53:00
12:53 PM,44.1,21.0,40,29.72,10.0,SW,15.0,-,N/A,,Overcast,220,2011-11-25 19:53:00
1:01 PM,37.4,28.4,70,29.78,2.5,NW,33.4,47.2,0.00,Snow,Light Snow,310,2011-11-25 20:01:00
1:07 PM,33.8,30.2,87,29.80,0.8,WNW,31.1,47.2,0.00,Snow,Light Snow,300,2011-11-25 20:07:00
1:17 PM,33.8,30.2,87,29.78,0.5,WNW,8.1,34.5,0.00,Fog-Snow,Snow,290,2011-11-25 20:17:00
1:23 PM,37.4,33.8,87,29.78,2.5,West,9.2,-,0.00,Snow,Light Snow,280,2011-11-25 20:23:00
1:30 PM,39.2,32.0,75,29.78,9.0,WSW,6.9,-,0.00,,Scattered Clouds,250,2011-11-25 20:30:00
1:41 PM,41.0,28.4,61,29.79,10.0,NNW,11.5,19.6,0.00,,Partly Cloudy,340,2011-11-25 20:41:00
1:53 PM,39.9,32.0,73,29.80,10.0,NNW,17.3,21.9,0.00,,Mostly Cloudy,340,2011-11-25 20:53:00
2:53 PM,42.1,14.0,32,29.78,10.0,WNW,20.7,27.6,N/A,,Clear,290,2011-11-25 21:53:00
3:53 PM,41.0,12.0,31,29.80,10.0,NW,13.8,19.6,N/A,,Clear,320,2011-11-25 22:53:00
4:53 PM,33.1,19.9,59,29.91,10.0,NNW,19.6,26.5,N/A,,Mostly Cloudy,340,2011-11-25 23:53:00
5:53 PM,32.0,15.1,50,29.99,10.0,NW,18.4,26.5,N/A,,Mostly Cloudy,320,2011-11-26 00:53:00
6:53 PM,30.0,10.0,43,30.07,10.0,North,18.4,23.0,N/A,,Clear,350,2011-11-26 01:53:00
7:53 PM,30.9,-0.9,26,30.15,10.0,NW,23.0,33.4,N/A,,Mostly Cloudy,320,2011-11-26 02:53:00
8:53 PM,30.0,-4.0,23,30.19,10.0,NW,25.3,39.1,N/A,,Scattered Clouds,320,2011-11-26 03:53:00
9:53 PM,28.0,-2.0,27,30.26,10.0,NW,15.0,25.3,N/A,,Clear,320,2011-11-26 04:53:00
10:53 PM,26.1,-0.9,31,30.31,10.0,NW,10.4,-,N/A,,Clear,320,2011-11-26 05:53:00
11:53 PM,24.1,-0.0,35,30.38,10.0,NW,10.4,-,N/A,,Clear,310,2011-11-26 06:53:00